Time,TemperatureF,DewpointF,PressureIn,WindDirection,WindDirectionDegrees,WindSpeedMPH,WindSpeedGustMPH,Humidity,HourlyPrecipIn,Conditions,Clouds,dailyrainin,SoftwareType,DateUTC
2013-04-09 00:00:00,44.2,44.2,29.24,ESE,113,6.0,16.0,100,0.00,,,0.01,Wunderground v.1.13,2013-04-08 23:00:00,
2013-04-09 00:10:00,44.2,44.2,29.24,ESE,113,6.0,16.0,100,0.00,,,0.01,Wunderground v.1.13,2013-04-08 23:10:00,
2013-04-09 00:20:00,44.2,44.2,29.24,ESE,113,6.0,16.0,100,0.00,,,0.01,Wunderground v.1.13,2013-04-08 23:20:00,
2013-04-09 00:30:00,44.1,44.1,29.24,East,90,5.0,16.0,100,0.00,,,0.01,Wunderground v.1.13,2013-04-08 23:30:00,
2013-04-09 00:40:00,44.1,44.1,29.24,East,90,5.0,14.0,100,0.00,,,0.01,Wunderground v.1.13,2013-04-08 23:40:00,
2013-04-09 00:50:00,44.1,44.1,29.24,East,90,5.0,14.0,100,0.00,,,0.01,Wunderground v.1.13,2013-04-08 23:50:00,
2013-04-09 01:00:00,44.0,44.0,29.24,East,90,7.0,17.0,100,0.00,,,0.01,Wunderground v.1.13,2013-04-09 00:00:00,
2013-04-09 01:10:00,44.1,44.1,29.24,East,90,7.0,20.0,100,0.00,,,0.01,Wunderground v.1.13,2013-04-09 00:10:00,
2013-04-09 01:20:00,44.1,44.1,29.24,East,90,7.0,20.0,100,0.00,,,0.01,Wunderground v.1.13,2013-04-09 00:20:00,
2013-04-09 01:30:00,43.9,43.9,29.24,East,90,6.0,17.0,100,0.00,,,0.01,Wunderground v.1.13,2013-04-09 00:30:00,
2013-04-09 01:40:00,43.9,43.9,29.24,East,90,7.0,21.0,100,0.00,,,0.01,Wunderground v.1.13,2013-04-09 00:40:00,
2013-04-09 01:50:00,43.9,43.9,29.24,East,90,7.0,21.0,100,0.00,,,0.01,Wunderground v.1.13,2013-04-09 00:50:00,
2013-04-09 02:00:00,43.8,43.8,29.24,East,90,7.0,17.0,100,0.00,,,0.01,Wunderground v.1.13,2013-04-09 01:00:00,
2013-04-09 02:10:00,43.6,43.6,29.24,East,90,7.0,19.0,100,0.00,,,0.01,Wunderground v.1.13,2013-04-09 01:10:00,
2013-04-09 02:20:00,43.6,43.6,29.24,East,90,7.0,19.0,100,0.00,,,0.01,Wunderground v.1.13,2013-04-09 01:20:00,
2013-04-09 02:30:00,43.5,43.5,29.24,East,90,9.0,19.0,100,0.00,,,0.01,Wunderground v.1.13,2013-04-09 01:30:00,
2013-04-09 02:40:00,43.5,43.5,29.24,East,90,10.0,19.0,100,0.00,,,0.01,Wunderground v.1.13,2013-04-09 01:40:00,
2013-04-09 02:50:00,43.5,43.5,29.24,East,90,10.0,19.0,100,0.00,,,0.01,Wunderground v.1.13,2013-04-09 01:50:00,
2013-04-09 03:00:00,43.5,43.5,29.24,East,90,9.0,18.0,100,0.00,,,0.01,Wunderground v.1.13,2013-04-09 02:00:00,
2013-04-09 03:10:00,43.5,43.5,29.24,East,90,9.0,17.0,100,0.00,,,0.01,Wunderground v.1.13,2013-04-09 02:10:00,
2013-04-09 03:20:00,43.5,43.5,29.24,East,90,9.0,17.0,100,0.00,,,0.01,Wunderground v.1.13,2013-04-09 02:20:00,
2013-04-09 03:30:00,43.4,43.4,29.25,East,90,9.0,17.0,100,0.00,,,0.01,Wunderground v.1.13,2013-04-09 02:30:00,
2013-04-09 03:40:00,43.4,43.4,29.25,East,90,10.0,18.0,100,0.00,,,0.01,Wunderground v.1.13,2013-04-09 02:40:00,
2013-04-09 03:50:00,43.4,43.4,29.25,East,90,10.0,18.0,100,0.00,,,0.01,Wunderground v.1.13,2013-04-09 02:50:00,
2013-04-09 04:00:00,43.3,43.3,29.25,East,90,10.0,19.0,100,0.00,,,0.01,Wunderground v.1.13,2013-04-09 03:00:00,
2013-04-09 04:10:00,43.1,43.1,29.25,East,90,10.0,18.0,100,0.00,,,0.01,Wunderground v.1.13,2013-04-09 03:10:00,
2013-04-09 04:20:00,43.1,43.1,29.25,East,90,10.0,18.0,100,0.00,,,0.01,Wunderground v.1.13,2013-04-09 03:20:00,
2013-04-09 04:30:00,43.0,43.0,29.26,East,90,10.0,17.0,100,0.00,,,0.01,Wunderground v.1.13,2013-04-09 03:30:00,
2013-04-09 04:40:00,42.9,42.9,29.26,East,90,10.0,19.0,100,0.00,,,0.01,Wunderground v.1.13,2013-04-09 03:40:00,
2013-04-09 04:50:00,42.9,42.9,29.26,East,90,10.0,19.0,100,0.00,,,0.01,Wunderground v.1.13,2013-04-09 03:50:00,
2013-04-09 05:00:00,42.9,42.9,29.26,East,90,9.0,17.0,100,0.00,,,0.01,Wunderground v.1.13,2013-04-09 04:00:00,
2013-04-09 05:10:00,43.1,43.1,29.27,East,90,10.0,19.0,100,0.00,,,0.01,Wunderground v.1.13,2013-04-09 04:10:00,
2013-04-09 05:20:00,43.1,43.1,29.27,East,90,10.0,19.0,100,0.00,,,0.01,Wunderground v.1.13,2013-04-09 04:20:00,
2013-04-09 05:30:00,43.1,43.1,29.27,East,90,10.0,20.0,100,0.00,,,0.01,Wunderground v.1.13,2013-04-09 04:30:00,
2013-04-09 05:40:00,43.0,43.0,29.27,ENE,68,11.0,19.0,100,0.01,,,0.01,Wunderground v.1.13,2013-04-09 04:40:00,
2013-04-09 05:50:00,43.0,43.0,29.27,ENE,68,11.0,19.0,100,0.01,,,0.01,Wunderground v.1.13,2013-04-09 04:50:00,
2013-04-09 06:00:00,42.8,42.8,29.27,ENE,68,12.0,19.0,100,0.01,,,0.01,Wunderground v.1.13,2013-04-09 05:00:00,
2013-04-09 06:10:00,42.7,42.7,29.28,ENE,68,12.0,19.0,100,0.01,,,0.01,Wunderground v.1.13,2013-04-09 05:10:00,
2013-04-09 06:20:00,42.7,42.7,29.28,ENE,68,12.0,19.0,100,0.01,,,0.01,Wunderground v.1.13,2013-04-09 05:20:00,
2013-04-09 06:30:00,42.6,42.6,29.28,ENE,68,13.0,21.0,100,0.01,,,0.01,Wunderground v.1.13,2013-04-09 05:30:00,
2013-04-09 06:40:00,42.3,42.3,29.29,ENE,68,13.0,22.0,100,0.00,,,0.01,Wunderground v.1.13,2013-04-09 05:40:00,
2013-04-09 06:50:00,42.3,42.3,29.29,ENE,68,13.0,22.0,100,0.00,,,0.01,Wunderground v.1.13,2013-04-09 05:50:00,
2013-04-09 07:00:00,42.1,42.1,29.30,ENE,68,13.0,22.0,100,0.00,,,0.01,Wunderground v.1.13,2013-04-09 06:00:00,
2013-04-09 07:10:00,41.8,41.8,29.30,ENE,68,12.0,19.0,100,0.00,,,0.01,Wunderground v.1.13,2013-04-09 06:10:00,
2013-04-09 07:20:00,41.8,41.8,29.30,ENE,68,12.0,19.0,100,0.00,,,0.01,Wunderground v.1.13,2013-04-09 06:20:00,
2013-04-09 07:30:00,41.6,41.6,29.31,ENE,68,12.0,21.0,100,0.00,,,0.01,Wunderground v.1.13,2013-04-09 06:30:00,
2013-04-09 07:40:00,41.7,41.7,29.32,ENE,68,11.0,18.0,100,0.00,,,0.01,Wunderground v.1.13,2013-04-09 06:40:00,
2013-04-09 07:50:00,41.7,41.7,29.32,ENE,68,11.0,18.0,100,0.00,,,0.01,Wunderground v.1.13,2013-04-09 06:50:00,
2013-04-09 08:00:00,41.9,41.9,29.33,NE,45,13.0,24.0,100,0.00,,,0.01,Wunderground v.1.13,2013-04-09 07:00:00,
2013-04-09 08:10:00,41.9,41.9,29.33,ENE,68,13.0,19.0,100,0.00,,,0.01,Wunderground v.1.13,2013-04-09 07:10:00,
2013-04-09 08:20:00,41.9,41.9,29.33,ENE,68,13.0,19.0,100,0.00,,,0.01,Wunderground v.1.13,2013-04-09 07:20:00,
2013-04-09 08:30:00,41.8,41.8,29.34,ENE,68,12.0,20.0,100,0.00,,,0.01,Wunderground v.1.13,2013-04-09 07:30:00,
2013-04-09 08:40:00,41.7,41.7,29.34,NE,45,12.0,24.0,100,0.00,,,0.01,Wunderground v.1.13,2013-04-09 07:40:00,
2013-04-09 08:50:00,41.7,41.7,29.34,NE,45,12.0,24.0,100,0.00,,,0.01,Wunderground v.1.13,2013-04-09 07:50:00,
2013-04-09 09:00:00,41.5,41.5,29.35,NE,45,11.0,19.0,100,0.00,,,0.01,Wunderground v.1.13,2013-04-09 08:00:00,
2013-04-09 09:10:00,41.4,41.4,29.36,NE,45,12.0,21.0,100,0.00,,,0.01,Wunderground v.1.13,2013-04-09 08:10:00,
2013-04-09 09:20:00,41.4,41.4,29.36,NE,45,12.0,21.0,100,0.00,,,0.01,Wunderground v.1.13,2013-04-09 08:20:00,
2013-04-09 09:30:00,41.3,41.3,29.36,NE,45,12.0,19.0,100,0.00,,,0.01,Wunderground v.1.13,2013-04-09 08:30:00,
2013-04-09 09:40:00,41.3,41.3,29.37,NE,45,12.0,18.0,100,0.00,,,0.01,Wunderground v.1.13,2013-04-09 08:40:00,
2013-04-09 09:50:00,41.3,41.3,29.37,NE,45,12.0,18.0,100,0.00,,,0.01,Wunderground v.1.13,2013-04-09 08:50:00,
2013-04-09 10:00:00,41.4,41.4,29.38,NE,45,11.0,20.0,100,0.00,,,0.01,Wunderground v.1.13,2013-04-09 09:00:00,
2013-04-09 10:10:00,41.5,41.5,29.38,NE,45,12.0,20.0,100,0.00,,,0.01,Wunderground v.1.13,2013-04-09 09:10:00,
2013-04-09 10:20:00,41.5,41.5,29.38,NE,45,12.0,20.0,100,0.00,,,0.01,Wunderground v.1.13,2013-04-09 09:20:00,
2013-04-09 10:39:00,41.7,41.7,29.39,ENE,61,11.0,13.0,100,0.00,,,0.01,Wunderground v.1.13,2013-04-09 09:39:00,
2013-04-09 10:49:00,41.7,41.7,29.39,ENE,65,12.0,12.0,100,0.00,,,0.01,Wunderground v.1.13,2013-04-09 09:49:00,
2013-04-09 11:00:00,41.6,41.6,29.40,ENE,65,12.0,12.0,100,0.00,,,0.01,Wunderground v.1.13,2013-04-09 10:00:00,
2013-04-09 11:09:00,42.0,41.7,29.40,ENE,61,12.0,18.0,99,0.00,,,0.01,Wunderground v.1.13,2013-04-09 10:09:00,
2013-04-09 11:20:00,42.3,42.0,29.40,ENE,66,13.0,13.0,99,0.00,,,0.01,Wunderground v.1.13,2013-04-09 10:20:00,
2013-04-09 11:30:00,42.3,42.0,29.41,ENE,61,13.0,13.0,99,0.00,,,0.01,Wunderground v.1.13,2013-04-09 10:30:00,
2013-04-09 11:39:00,42.5,42.2,29.41,East,82,12.0,12.0,99,0.00,,,0.01,Wunderground v.1.13,2013-04-09 10:39:00,
2013-04-09 11:50:00,42.3,41.8,29.41,ENE,69,11.0,15.0,98,0.00,,,0.01,Wunderground v.1.13,2013-04-09 10:50:00,
2013-04-09 12:09:00,42.3,41.8,29.42,ENE,62,10.0,10.0,98,0.00,,,0.01,Wunderground v.1.13,2013-04-09 11:09:00,
2013-04-09 12:19:00,42.5,42.0,29.42,NE,48,9.0,13.0,98,0.00,,,0.01,Wunderground v.1.13,2013-04-09 11:19:00,
2013-04-09 12:29:00,42.3,41.8,29.43,NE,38,12.0,12.0,98,0.00,,,0.01,Wunderground v.1.13,2013-04-09 11:29:00,
2013-04-09 12:59:00,42.9,42.1,29.43,ENE,72,10.0,10.0,97,0.00,,,0.01,Wunderground v.1.13,2013-04-09 11:59:00,
2013-04-09 13:09:00,42.9,42.1,29.43,NE,55,11.0,11.0,97,0.00,,,0.01,Wunderground v.1.13,2013-04-09 12:09:00,
2013-04-09 13:29:00,43.2,42.4,29.44,NE,48,10.0,16.0,97,0.00,,,0.01,Wunderground v.1.13,2013-04-09 12:29:00,
2013-04-09 13:39:00,43.5,42.7,29.44,NE,47,10.0,13.0,97,0.00,,,0.01,Wunderground v.1.13,2013-04-09 12:39:00,
2013-04-09 13:49:00,43.5,42.7,29.45,ENE,78,10.0,13.0,97,0.00,,,0.01,Wunderground v.1.13,2013-04-09 12:49:00,
2013-04-09 13:59:00,43.6,42.8,29.45,ENE,59,11.0,11.0,97,0.00,,,0.01,Wunderground v.1.13,2013-04-09 12:59:00,
2013-04-09 14:19:00,43.8,43.0,29.45,ENE,68,10.0,16.0,97,0.00,,,0.01,Wunderground v.1.13,2013-04-09 13:19:00,
2013-04-09 14:28:00,43.9,42.8,29.46,East,79,9.0,9.0,96,0.00,,,0.01,Wunderground v.1.13,2013-04-09 13:28:00,
2013-04-09 14:39:00,43.9,42.8,29.46,ENE,59,10.0,11.0,96,0.00,,,0.01,Wunderground v.1.13,2013-04-09 13:39:00,
2013-04-09 15:19:00,43.6,42.8,29.47,East,83,10.0,10.0,97,0.00,,,0.01,Wunderground v.1.13,2013-04-09 14:19:00,
2013-04-09 15:29:00,43.6,42.8,29.47,East,85,9.0,9.0,97,0.00,,,0.01,Wunderground v.1.13,2013-04-09 14:29:00,
2013-04-09 15:39:00,43.6,42.8,29.47,ENE,76,8.0,8.0,97,0.00,,,0.01,Wunderground v.1.13,2013-04-09 14:39:00,
2013-04-09 15:50:00,43.8,43.0,29.47,ENE,68,8.0,14.0,97,0.00,,,0.01,Wunderground v.1.13,2013-04-09 14:50:00,
2013-04-09 16:00:00,43.9,43.1,29.48,East,90,7.0,12.0,97,0.00,,,0.01,Wunderground v.1.13,2013-04-09 15:00:00,
2013-04-09 16:09:00,43.9,43.1,29.48,East,93,7.0,7.0,97,0.00,,,0.01,Wunderground v.1.13,2013-04-09 15:09:00,
2013-04-09 16:18:00,43.9,43.4,29.48,ENE,75,7.0,8.0,98,0.00,,,0.01,Wunderground v.1.13,2013-04-09 15:18:00,
2013-04-09 16:29:00,43.8,43.0,29.48,East,88,7.0,9.0,97,0.00,,,0.01,Wunderground v.1.13,2013-04-09 15:29:00,
2013-04-09 16:39:00,43.9,43.1,29.48,East,89,6.0,6.0,97,0.00,,,0.01,Wunderground v.1.13,2013-04-09 15:39:00,
2013-04-09 16:49:00,44.1,43.3,29.49,ESE,107,5.0,7.0,97,0.00,,,0.01,Wunderground v.1.13,2013-04-09 15:49:00,
2013-04-09 17:08:00,43.8,43.0,29.49,East,92,5.0,5.0,97,0.00,,,0.01,Wunderground v.1.13,2013-04-09 16:08:00,
2013-04-09 17:18:00,43.9,43.1,29.49,ENE,68,3.0,3.0,97,0.00,,,0.01,Wunderground v.1.13,2013-04-09 16:18:00,
2013-04-09 17:28:00,43.9,43.1,29.49,East,99,3.0,3.0,97,0.00,,,0.01,Wunderground v.1.13,2013-04-09 16:28:00,
2013-04-09 17:48:00,43.8,43.3,29.49,East,97,2.0,2.0,98,0.00,,,0.01,Wunderground v.1.13,2013-04-09 16:48:00,
2013-04-09 17:58:00,43.6,43.1,29.49,ESE,103,2.0,2.0,98,0.00,,,0.01,Wunderground v.1.13,2013-04-09 16:58:00,
2013-04-09 18:08:00,43.6,43.1,29.49,ESE,103,2.0,2.0,98,0.00,,,0.01,Wunderground v.1.13,2013-04-09 17:08:00,
2013-04-09 18:18:00,43.6,43.1,29.50,ESE,109,2.0,3.0,98,0.00,,,0.01,Wunderground v.1.13,2013-04-09 17:18:00,
2013-04-09 18:28:00,43.5,43.0,29.50,ESE,116,2.0,2.0,98,0.00,,,0.01,Wunderground v.1.13,2013-04-09 17:28:00,
2013-04-09 18:38:00,43.5,43.0,29.50,ESE,112,2.0,2.0,98,0.00,,,0.01,Wunderground v.1.13,2013-04-09 17:38:00,
2013-04-09 18:48:00,43.6,43.1,29.50,ESE,123,1.0,1.0,98,0.00,,,0.02,Wunderground v.1.13,2013-04-09 17:48:00,
2013-04-09 18:58:00,43.6,43.1,29.50,ESE,123,2.0,2.0,98,0.00,,,0.02,Wunderground v.1.13,2013-04-09 17:58:00,
2013-04-09 19:08:00,43.6,43.1,29.50,SE,134,1.0,1.0,98,0.00,,,0.02,Wunderground v.1.13,2013-04-09 18:08:00,
2013-04-09 19:18:00,43.5,43.0,29.50,SE,138,2.0,2.0,98,0.00,,,0.02,Wunderground v.1.13,2013-04-09 18:18:00,
2013-04-09 19:29:00,43.2,42.7,29.51,SSE,162,2.0,2.0,98,0.00,,,0.02,Wunderground v.1.13,2013-04-09 18:29:00,
2013-04-09 19:39:00,43.2,42.7,29.51,SSE,162,1.0,1.0,98,0.00,,,0.02,Wunderground v.1.13,2013-04-09 18:39:00,
2013-04-09 19:49:00,42.9,42.4,29.52,SSE,160,1.0,2.0,98,0.00,,,0.02,Wunderground v.1.13,2013-04-09 18:49:00,
2013-04-09 20:00:00,42.9,42.6,29.52,SSE,158,1.0,7.0,99,0.00,,,0.02,Wunderground v.1.13,2013-04-09 19:00:00,
2013-04-09 20:09:00,42.8,42.5,29.52,SSE,160,1.0,1.0,99,0.00,,,0.02,Wunderground v.1.13,2013-04-09 19:09:00,
2013-04-09 20:19:00,42.8,42.5,29.53,SSE,158,1.0,7.0,99,0.00,,,0.02,Wunderground v.1.13,2013-04-09 19:19:00,
2013-04-09 20:39:00,42.5,42.5,29.53,SSE,160,0.0,0.0,100,0.00,,,0.03,Wunderground v.1.13,2013-04-09 19:39:00,
2013-04-09 20:49:00,42.5,42.5,29.53,SSE,160,1.0,1.0,100,0.00,,,0.03,Wunderground v.1.13,2013-04-09 19:49:00,
2013-04-09 20:59:00,42.5,42.5,29.54,SSE,160,1.0,1.0,100,0.00,,,0.04,Wunderground v.1.13,2013-04-09 19:59:00,
2013-04-09 21:09:00,42.5,42.5,29.54,SSE,160,1.0,1.0,100,0.00,,,0.04,Wunderground v.1.13,2013-04-09 20:09:00,
2013-04-09 21:19:00,42.5,42.5,29.54,SSE,160,1.0,5.0,100,0.00,,,0.04,Wunderground v.1.13,2013-04-09 20:19:00,
2013-04-09 21:29:00,42.5,42.5,29.54,SSE,160,1.0,1.0,100,0.00,,,0.04,Wunderground v.1.13,2013-04-09 20:29:00,
2013-04-09 21:39:00,42.5,42.5,29.54,SSE,160,0.0,0.0,100,0.00,,,0.04,Wunderground v.1.13,2013-04-09 20:39:00,
2013-04-09 21:49:00,42.5,42.5,29.54,SSE,160,1.0,3.0,100,0.00,,,0.04,Wunderground v.1.13,2013-04-09 20:49:00,
2013-04-09 21:59:00,42.5,42.5,29.55,SSE,160,1.0,1.0,100,0.00,,,0.04,Wunderground v.1.13,2013-04-09 20:59:00,
2013-04-09 22:29:00,42.5,42.5,29.55,SSE,160,1.0,1.0,100,0.00,,,0.06,Wunderground v.1.13,2013-04-09 21:29:00,
2013-04-09 22:39:00,42.5,42.5,29.55,SSE,160,1.0,2.0,100,0.00,,,0.06,Wunderground v.1.13,2013-04-09 21:39:00,
2013-04-09 22:59:00,42.6,42.6,29.55,SSE,160,1.0,1.0,100,0.00,,,0.06,Wunderground v.1.13,2013-04-09 21:59:00,
2013-04-09 23:09:00,42.6,42.6,29.55,SSE,160,0.0,0.0,100,0.00,,,0.06,Wunderground v.1.13,2013-04-09 22:09:00,
2013-04-09 23:19:00,42.8,42.8,29.55,SSE,160,1.0,1.0,100,0.00,,,0.06,Wunderground v.1.13,2013-04-09 22:19:00,
2013-04-09 23:29:00,42.8,42.8,29.55,SSE,155,1.0,3.0,100,0.00,,,0.06,Wunderground v.1.13,2013-04-09 22:29:00,
2013-04-09 23:39:00,42.8,42.8,29.55,SSE,155,2.0,2.0,100,0.00,,,0.06,Wunderground v.1.13,2013-04-09 22:39:00,
2013-04-09 23:49:00,42.6,42.6,29.55,SSE,155,2.0,3.0,100,0.00,,,0.07,Wunderground v.1.13,2013-04-09 22:49:00,